Other Public Products
Issued by NWS Grand Forks, ND

Home | Current Version | Previous Version | Graphics & Text | Print | Product List | Glossary On
Versions: 1 2 3 4 5 6 7 8 9 10 11 12 13 14 15 16 17 18 19 20 21 22 23 24 25 26 27 28 29 30 31 32 33 34 35 36 37 38 39 40 41 42 43 44 45 46 47 48 49 50
000
FPUS83 KFGF 240531
OPUFGF
PRAIRIE TO PINES WEATHER ROUNDUP
NATIONAL WEATHER SERVICE EASTERN NORTH DAKOTA/GRAND FORKS ND
1100 PM CST MON JAN 23 2017

 **SATELLITE DATA USED TO AUGMENT SKY COVER AT AUTOMATED STATIONS**
 *****  WEATHER ACROSS EASTERN NORTH DAKOTA  *****

CITY           SKY/WX    TMP DP  RH WIND       PRES   REMARKS
GRAND FORKS    CLOUDY    27  21  78 W9        29.83S WCI  18
GRAND FORKS AF CLOUDY    26  20  79 NW14      29.83S WCI  14
GRAND CITY NWS NOT AVBL
BUXTON           N/A     29  27  91 W5          N/A  WCI  24
DEVILS LAKE    CLOUDY    22  19  89 W13       29.80S WCI  10
FARGO          CLOUDY    33  25  72 W6        29.84S
WAHPETON ARPT  CLOUDY    32  28  86 NW3       29.85R
$$

 *****  WEATHER ACROSS CENTRAL AND WESTERN NORTH DAKOTA  *****

CITY           SKY/WX    TMP DP  RH WIND       PRES   REMARKS
JAMESTOWN      CLOUDY    28  23  81 NW7       29.81S WCI  21
BISMARCK       CLOUDY    30  25  81 CALM      29.83S
MINOT          CLOUDY    24  18  77 W13       29.80R WCI  12
MINOT AFB      CLOUDY    22  18  85 W14       29.79S WCI   9
GARRISON         N/A     20  16  84 NW9       29.81R WCI   9
WILLISTON      CLOUDY    22  19  89 W6        29.84R WCI  14
DICKINSON      CLOUDY    23  21  92 W5        29.77F FOG     WCI  17
HETTINGER      FOG       21  19  92 N3        29.79F VSB 1/2
$$

 *****  OTHER OBSERVATIONS NORTHEAST NORTH DAKOTA  *****

CITY           SKY/WX    TMP DP  RH WIND       PRES   REMARKS
WALHALLA       NOT AVBL
LANGDON        NOT AVBL
CAVALIER       CLOUDY    27  23  86 SW8       29.79S WCI  18
GRAFTON        CLOUDY    25  23  93 W14       29.83S WCI  13
CANDO          NOT AVBL
FORT TOTTEN      N/A     21  20  96 W8        29.95S WCI  11
ROLLA            N/A    N/A N/A N/A MISG        N/A
RUGBY            N/A     21  19  93 W13       29.79S WCI   9
 ***** THE ABOVE OBSERVATIONS ARE NON NWS ARE NOT QUALITY
        CONTROLLED AND MAY MIS-REPORT RAIN FOR SNOW...
$$

 *****  OTHER OBSERVATIONS SOUTHEAST NORTH DAKOTA *****

CITY           SKY/WX    TMP DP  RH WIND       PRES   REMARKS
COOPERSTOWN    CLOUDY    27  25  93 W9        29.82S WCI  17
VALLEY CITY    CLOUDY    28  28 100 W10       29.84S WCI  19
OAKES          NOT AVBL
GWINNER        CLOUDY    32  28  86 N3        29.84S
SHEYENNE NWR     N/A     30  24  79 NW3       29.95S
BUFFALO          N/A     30  21  70 W3          N/A
WYNDMERE         N/A     30  28  93 N3          N/A
 ***** THE ABOVE OBSERVATIONS ARE NON NWS ARE NOT QUALITY
       CONTROLLED AND MAY MIS-REPORT RAIN FOR SNOW...
$$

  *****  WEATHER ACROSS NORTHERN MINNESOTA  *****

CITY           SKY/WX    TMP DP  RH WIND       PRES   REMARKS
FLAG ISLAND    CLOUDY    27  25  93 SW9       29.78R WCI  17
WARROAD        CLOUDY    28  25  86 SW7       29.79S WCI  21
ROSEAU         CLOUDY    28  21  74 SW12      29.79S WCI  18
HALLOCK        CLOUDY    27  25  93 SW9       29.80S WCI  17
THF RVR FALLS  CLOUDY    26  22  84 W13       29.83R WCI  15
HALSTAD          N/A     31  25  79 W8          N/A  WCI  23
FOSSTON        CLOUDY    27  21  80 SW6       29.82S WCI  20
BAUDETTE       CLOUDY    29  23  78 SW6       29.79R WCI  23
WASKISH        CLOUDY    28  25  86 W8        29.81R WCI  20
CROOKSTON      CLOUDY    27  25  93 NW12      29.84S WCI  16
$$
  *****  WEATHER ACROSS CENTRAL AND WEST MINNESOTA  *****

CITY           SKY/WX    TMP DP  RH WIND       PRES   REMARKS
BEMIDJI        CLOUDY    28  24  84 W7        29.81R WCI  21
PARK RAPIDS    CLOUDY    30  24  78 W3        29.80R
WADENA         CLOUDY    28  25  86 CALM      29.82
DETROIT LAKES  CLOUDY    30  27  86 CALM      29.83S
MOORHEAD       CLOUDY    30  27  86 CALM      29.86R
FERGUS FALLS   CLOUDY    30  30 100 W3        29.88R
ELBOW LAKE     CLOUDY    30  28  92 SW3       29.84S FOG
MORRIS MN      CLOUDY    30  28  93 CALM      29.84R
STAPLES        CLOUDY    28  25  86 CALM      29.82S
WHEATON        CLOUDY    30  28  93 CALM      29.87R
$$
  *****  WEATHER ELSEWHERE ACROSS MINNESOTA  *****

CITY           SKY/WX    TMP DP  RH WIND       PRES   REMARKS
DULUTH         FLURRIES  33  31  92 NW6       29.80R
INTRNTL FALLS  CLOUDY    29  23  78 W3        29.80S
ELY            LGT SNOW  30  30 100 W3        29.79S
CLOQUET        LGT SNOW  32  30  93 NW6       29.80F
BRAINERD       CLOUDY    31  25  78 CALM      29.82S
HIBBING        CLOUDY    30  26  85 CALM      29.80R
ALEXANDRIA     CLOUDY    30  24  78 W5        29.83R
SAINT CLOUD    CLOUDY    31  26  82 NW3       29.84R
MINNEAPOLIS    CLOUDY    33  27  78 NW6       29.85S
$$

  *****  WEATHER ACROSS SOUTH DAKOTA  *****

CITY           SKY/WX    TMP DP  RH WIND       PRES   REMARKS
SIOUX FALLS    CLOUDY    32  30  92 SE8       29.81F WCI  25
BROOKINGS      CLOUDY    30  27  88 S8        29.81R WCI  22
WATERTOWN      CLOUDY    28  26  92 SE7       29.80R WCI  21
HURON          CLOUDY    31  28  89 SE8       29.81R WCI  23
SISSETON         N/A     31  29  92 CALM      29.83R
ABERDEEN       CLOUDY    29  25  85 N5        29.84R FOG     WCI  24
MITCHELL       CLOUDY    32  29  88 SE10      29.80F WCI  24
PIERRE         CLOUDY    29  26  89 E7        29.76S WCI  22
MOBRIDGE       FLURRIES  28  23  81 NE9       29.78S WCI  19
RAPID CITY     FOG       23  21  92 N16       29.71S VSB 3/4 WCI  10
$$

  *****  SOME WEATHER IN NEARBY STATES *****

CITY           SKY/WX    TMP DP  RH WIND       PRES   REMARKS
GLASGOW MT     CLOUDY    21  16  81 NW10      29.84R WCI  10
GREAT FALLS MT FOG       17  15  92 NW7       29.82S VSB 1/4 WCI   8
CHEYENNE WY    LGT SNOW  31  30  96 SE9       29.54F FOG     WCI  23
SCOTTSBLUFF NE CLOUDY    30  26  85 NE18G25   29.55F WCI  18
OMAHA NE       CLOUDY    32  27  81 SE9       29.85R WCI  24
DES MOINES IA  CLOUDY    33  28  81 CALM      29.88S
DAVENPORT IA   CLOUDY    33  31  92 W6        29.86R
CHICAGO IL     CLOUDY    38  35  89 N6        29.81R
EAU CLAIRE WI  CLOUDY    33  32  96 SW3       29.83R FOG
LA CROSSE WI   CLOUDY    36  32  85 CALM      29.85S
$$

  *****  SOME NATIONAL WEATHER *****

CITY           SKY/WX    TMP DP  RH WIND       PRES   REMARKS
LA GUARDIA NY  HVY RAIN  39  35  86 NE28G36   29.47F FOG
RALEIGH NC     MOCLDY    43  37  79 N8        29.49S
ATLANTA GA     MOCLDY    50  43  77 NW17      29.72R
NEW ORLEANS LA FAIR      53  45  74 SW5       29.90R
OKLAHOMA CITY  FAIR      47  32  56 S13       29.68F
ALBUQUERQUE NM MOCLDY    45  30  55 S12       29.63S
SALT LAKE CITY CLOUDY    34  27  75 NE6       29.62R
LOS ANGELES CA FAIR      50  39  66 NW5       29.89R
BOISE ID       CLOUDY    28  24  85 W10       29.68S WCI  19
SEATTLE WA     FAIR      39  36  89 NE5       29.96S
$$

*** WEATHER ACROSS MANITOBA...SASKATCHEWAN AND ONTARIO ***
                ***ONTARIO***

CITY           SKY/WX    TMP DP  RH WIND       PRES   REMARKS
GERALDTON      FOG       34  34 100 CALM      29.77S VSB 1/8
THUNDER BAY    CLOUDY    30  30 100 NW3       29.80S
SIOUX LOOKOUT  LGT SNOW  32  32 100 CALM      29.75S FOG
TORONTO        MOCLDY    34  28  80 NE14      29.75F WCI  24
BIG TROUT LK   FLURRIES  25  23  93 E3        29.79S
PICKLE LAKE    NOT AVBL
DRYDEN         CLOUDY    30  30 100 SW3       29.75S
KENORA         FLURRIES  27  25  93 SW10      29.77R WCI  17
$$
                *** MANITOBA***

CITY           SKY/WX    TMP DP  RH WIND       PRES   REMARKS
BRANDON        FLURRIES  23  19  86 W15       29.73S WCI  10
DAUPHIN        LGT SNOW  28  27  93 NW8       29.73R VSB 1   WCI  20
ISLAND LAKE    FLURRIES  30  30 100 E2        29.73F
PILOT MOUND      N/A     23  19  86 W8          N/A  WCI  14
THE PAS        CLOUDY    16  12  86 N10       29.83S WCI   3
THOMPSON       CLOUDY    18  14  86 N5        29.82F WCI  11
WINNIPEG       FLURRIES  27  23  86 SW9       29.75S WCI  17
LYNN LAKE      FLURRIES   7   3  85 N6        29.87S WCI  -3
CHURCHILL      LGT SNOW  12  10  92 MISG      29.98F DRFTSNOW
GILLAM         FLURRIES  19  16  86 NE8       29.85F WCI   9
$$
                ***SASKATCHEWAN***

CITY           SKY/WX    TMP DP  RH WIND       PRES   REMARKS
ESTEVAN        FLURRIES  19  18  93 NW13      29.79S WCI   7
KINDERSLEY     FLURRIES  12   9  85 NW7       29.84S WCI   2
LLOYDMINSTER   FLURRIES  10   9  92 N7        29.88S WCI   0
PRINCE ALBERT  FLURRIES  14   9  79 N6        29.87S WCI   5
REGINA         CLOUDY    16  12  86 NW13      29.81S WCI   2
YORKTON        FLURRIES  19  16  86 NW13      29.75R WC1F1C2F2C3F3C4F4C5F5C6F6C7F7C8F8C9F9CaFaCbFbCcFcCdFdCe!


USA.gov is the U.S. government's official web portal to all federal, state and local government web resources and services.